Location: Alma
(38.7220°N, 88.9090°W)
Time: 21:12:12
(UTC-06:00)

Vanguard 2 - Pass Details

Date: 16 November 2019
Orbit: 553 x 2938 km, 32.9° (Epoch: 10 December)

Event Time Altitude Azimuth Distance (km) Brightness Sun altitude
Rises 14:04:17 0° 265° (W) 2,949 11.1 23.3°
Reaches altitude 10° 14:07:28 10° 242° (WSW) 1,880 10.9 22.9°
Maximum altitude 14:09:58 16° 204° (SSW) 1,492 11.0 22.6°
Drops below altitude 10° 14:12:25 10° 165° (SSE) 1,825 10.1 22.3°
Sets 14:15:27 0° 142° (SE) 2,815 10.6 22.0°
